• In Switzerland
  • List of Countries
  • For 7 days
  • Water Temperature
  • Satellite Maps
  • Weather Map
  • Weather Widgets
  • user-avatar
    Login

    Hourly Weather Serhiivka

    Today, 18 July, Wednesday

    Time Temperature Precipitation Wind Pressure Humidity
    00:00 +22°C° 0.1 mm 4 mps 751 mmHg 73%
    01:00 +22°C° 0.1 mm 4 mps 751 mmHg 75%
    02:00 +22°C° 0.1 mm 4 mps 751 mmHg 76%
    03:00 +22°C° 0.4 mm 4 mps 751 mmHg 77%
    04:00 +22°C° 0.4 mm 3 mps 751 mmHg 77%
    05:00 +22°C° 0.4 mm 3 mps 751 mmHg 78%
    06:00 +25°C° 0 mm 3 mps 751 mmHg 69%
    07:00 +27°C° 0 mm 4 mps 750 mmHg 59%
    08:00 +29°C° 0 mm 4 mps 750 mmHg 50%
    09:00 +30°C° 0.1 mm 5 mps 750 mmHg 47%
    10:00 +32°C° 0.1 mm 5 mps 750 mmHg 43%
    11:00 +33°C° 0.1 mm 6 mps 750 mmHg 39%
    12:00 +33°C° 0 mm 6 mps 750 mmHg 38%
    13:00 +33°C° 0 mm 6 mps 750 mmHg 38%
    14:00 +33°C° 0 mm 7 mps 750 mmHg 37%
    15:00 +33°C° 0 mm 6 mps 750 mmHg 38%
    16:00 +32°C° 0 mm 6 mps 750 mmHg 39%
    17:00 +32°C° 0 mm 6 mps 750 mmHg 40%
    18:00 +29°C° 0 mm 5 mps 750 mmHg 45%
    19:00 +28°C° 0 mm 4 mps 750 mmHg 50%
    20:00 +26°C° 0 mm 4 mps 750 mmHg 56%
    21:00 +26°C° 0 mm 4 mps 750 mmHg 60%
    22:00 +25°C° 0 mm 4 mps 750 mmHg 64%
    23:00 +25°C° 0 mm 4 mps 750 mmHg 68%

    Tomorrow, 19 July, Thursday

    Time Temperature Precipitation Wind Pressure Humidity
    00:00 +23°C° 0 mm 4 mps 750 mmHg 70%
    01:00 +23°C° 0 mm 4 mps 750 mmHg 73%
    02:00 +24°C° 0 mm 3 mps 750 mmHg 75%
    03:00 +24°C° 0 mm 3 mps 750 mmHg 75%
    04:00 +24°C° 0 mm 3 mps 750 mmHg 75%
    05:00 +24°C° 0 mm 3 mps 750 mmHg 76%
    06:00 +25°C° 0 mm 3 mps 750 mmHg 69%
    07:00 +27°C° 0 mm 3 mps 750 mmHg 62%
    08:00 +28°C° 0 mm 4 mps 751 mmHg 56%
    09:00 +29°C° 0 mm 3 mps 751 mmHg 52%
    10:00 +30°C° 0 mm 3 mps 751 mmHg 48%
    11:00 +31°C° 0 mm 3 mps 751 mmHg 44%
    12:00 +31°C° 0 mm 3 mps 751 mmHg 43%
    13:00 +33°C° 0 mm 4 mps 751 mmHg 42%
    14:00 +33°C° 0 mm 4 mps 751 mmHg 41%
    15:00 +33°C° 0 mm 4 mps 751 mmHg 41%
    16:00 +32°C° 0 mm 4 mps 751 mmHg 42%
    17:00 +32°C° 0 mm 4 mps 751 mmHg 42%
    18:00 +30°C° 0 mm 4 mps 751 mmHg 48%
    19:00 +28°C° 0 mm 3 mps 751 mmHg 54%
    20:00 +26°C° 0 mm 3 mps 751 mmHg 60%
    21:00 +26°C° 0 mm 3 mps 751 mmHg 64%
    22:00 +25°C° 0 mm 3 mps 751 mmHg 67%
    23:00 +25°C° 0 mm 2 mps 751 mmHg 71%

    Day after tomorrow, 20 July, Friday

    Time Temperature Precipitation Wind Pressure Humidity
    00:00 +24°C° 0 mm 3 mps 751 mmHg 73%
    01:00 +24°C° 0 mm 3 mps 751 mmHg 75%
    02:00 +24°C° 0 mm 3 mps 751 mmHg 77%
    03:00 +24°C° 0.1 mm 3 mps 751 mmHg 78%
    04:00 +24°C° 0.1 mm 3 mps 751 mmHg 79%
    05:00 +24°C° 0.1 mm 3 mps 751 mmHg 80%
    06:00 +25°C° 0.2 mm 3 mps 751 mmHg 74%
    07:00 +26°C° 0.2 mm 3 mps 751 mmHg 69%
    08:00 +28°C° 0.2 mm 3 mps 751 mmHg 64%
    09:00 +29°C° 0.2 mm 4 mps 751 mmHg 59%
    10:00 +30°C° 0.2 mm 4 mps 751 mmHg 55%
    11:00 +32°C° 0.2 mm 4 mps 751 mmHg 50%
    12:00 +32°C° 0.1 mm 4 mps 751 mmHg 48%
    13:00 +33°C° 0.1 mm 4 mps 751 mmHg 46%
    14:00 +33°C° 0.1 mm 4 mps 751 mmHg 44%
    15:00 +33°C° 0 mm 4 mps 751 mmHg 45%
    16:00 +33°C° 0 mm 4 mps 751 mmHg 46%
    17:00 +33°C° 0 mm 4 mps 751 mmHg 47%
    18:00 +30°C° 0 mm 4 mps 751 mmHg 51%
    19:00 +29°C° 0 mm 3 mps 751 mmHg 56%
    20:00 +28°C° 0 mm 3 mps 752 mmHg 60%
    21:00 +27°C° 0.1 mm 3 mps 752 mmHg 64%
    22:00 +26°C° 0.1 mm 3 mps 752 mmHg 67%
    23:00 +25°C° 0.1 mm 3 mps 752 mmHg 71%

    21 July, Saturday

    Time Temperature Precipitation Wind Pressure Humidity
    00:00 +25°C° 0.1 mm 3 mps 752 mmHg 73%
    01:00 +24°C° 0.1 mm 3 mps 752 mmHg 76%
    02:00 +24°C° 0.1 mm 3 mps 752 mmHg 79%
    03:00 +24°C° 0 mm 3 mps 752 mmHg 81%
    04:00 +22°C° 0 mm 3 mps 752 mmHg 83%
    05:00 +22°C° 0 mm 3 mps 752 mmHg 84%
    06:00 +25°C° 0 mm 4 mps 752 mmHg 77%
    07:00 +26°C° 0 mm 4 mps 753 mmHg 69%
    08:00 +28°C° 0 mm 4 mps 753 mmHg 61%
    09:00 +29°C° 0 mm 4 mps 753 mmHg 57%
    10:00 +30°C° 0 mm 4 mps 753 mmHg 52%
    11:00 +33°C° 0 mm 5 mps 753 mmHg 47%
    12:00 +33°C° 0 mm 5 mps 753 mmHg 46%
    13:00 +33°C° 0 mm 5 mps 753 mmHg 45%
    14:00 +33°C° 0 mm 5 mps 753 mmHg 44%
    15:00 +33°C° 0 mm 5 mps 753 mmHg 45%
    16:00 +33°C° 0 mm 5 mps 753 mmHg 45%
    17:00 +33°C° 0 mm 5 mps 753 mmHg 46%
    18:00 +32°C° 0 mm 5 mps 753 mmHg 50%
    19:00 +29°C° 0 mm 5 mps 753 mmHg 54%
    20:00 +28°C° 0 mm 4 mps 753 mmHg 59%
    21:00 +27°C° 0 mm 4 mps 753 mmHg 62%
    22:00 +27°C° 0 mm 4 mps 753 mmHg 66%
    23:00 +26°C° 0 mm 3 mps 753 mmHg 70%

    22 July, Sunday

    Time Temperature Precipitation Wind Pressure Humidity
    00:00 +25°C° 0 mm 3 mps 753 mmHg 72%
    01:00 +25°C° 0 mm 2 mps 753 mmHg 75%
    02:00 +24°C° 0 mm 2 mps 753 mmHg 78%
    03:00 +24°C° 0 mm 2 mps 753 mmHg 78%
    04:00 +24°C° 0 mm 1 mps 753 mmHg 79%
    05:00 +24°C° 0 mm 1 mps 753 mmHg 79%
    06:00 +26°C° 0 mm 1 mps 753 mmHg 72%
    07:00 +27°C° 0 mm 1 mps 753 mmHg 66%
    08:00 +29°C° 0 mm 1 mps 753 mmHg 59%
    09:00 +30°C° 0 mm 2 mps 753 mmHg 54%
    10:00 +31°C° 0 mm 2 mps 753 mmHg 50%
    11:00 +33°C° 0 mm 3 mps 753 mmHg 46%
    12:00 +33°C° 0 mm 3 mps 753 mmHg 45%
    13:00 +33°C° 0 mm 3 mps 753 mmHg 44%
    14:00 +33°C° 0 mm 3 mps 753 mmHg 43%
    15:00 +33°C° 0 mm 3 mps 752 mmHg 43%
    16:00 +33°C° 0 mm 3 mps 752 mmHg 43%
    17:00 +33°C° 0 mm 3 mps 752 mmHg 42%
    18:00 +31°C° 0 mm 3 mps 753 mmHg 47%
    19:00 +29°C° 0 mm 3 mps 753 mmHg 51%
    20:00 +28°C° 0 mm 3 mps 753 mmHg 55%
    21:00 +27°C° 0 mm 3 mps 753 mmHg 59%
    22:00 +26°C° 0 mm 3 mps 753 mmHg 62%
    23:00 +26°C° 0 mm 3 mps 753 mmHg 65%

    23 July, Monday

    Time Temperature Precipitation Wind Pressure Humidity
    00:00 +25°C° 0 mm 2 mps 753 mmHg 67%
    01:00 +25°C° 0 mm 2 mps 753 mmHg 69%
    02:00 +24°C° 0 mm 2 mps 753 mmHg 71%
    03:00 +24°C° 0 mm 2 mps 753 mmHg 71%
    04:00 +24°C° 0 mm 1 mps 753 mmHg 72%
    05:00 +24°C° 0 mm 1 mps 753 mmHg 73%
    06:00 +26°C° 0 mm 1 mps 753 mmHg 67%
    07:00 +28°C° 0 mm 1 mps 753 mmHg 60%
    08:00 +30°C° 0 mm 1 mps 753 mmHg 54%
    09:00 +31°C° 0 mm 1 mps 753 mmHg 49%
    10:00 +32°C° 0 mm 1 mps 753 mmHg 44%
    11:00 +33°C° 0 mm 1 mps 753 mmHg 39%
    12:00 +33°C° 0 mm 1 mps 753 mmHg 39%
    13:00 +33°C° 0 mm 1 mps 753 mmHg 38%
    14:00 +34°C° 0 mm 2 mps 753 mmHg 37%
    15:00 +34°C° 0 mm 2 mps 753 mmHg 38%
    16:00 +34°C° 0 mm 2 mps 753 mmHg 39%
    17:00 +34°C° 0 mm 2 mps 753 mmHg 39%
    18:00 +32°C° 0 mm 2 mps 753 mmHg 43%
    19:00 +30°C° 0 mm 2 mps 753 mmHg 46%
    20:00 +29°C° 0 mm 2 mps 753 mmHg 49%
    21:00 +28°C° 0 mm 2 mps 754 mmHg 52%
    22:00 +28°C° 0 mm 2 mps 754 mmHg 54%
    23:00 +27°C° 0 mm 2 mps 754 mmHg 57%
    Show more